GW1112 Weather Reports


Display with metric or nautical units.
time (UTC)temp
F
wind
direction
speed
MPH
gust
MPH
rain 1hr
in
rain 24hr
in
rain mn
in
humidity
%
barometer
mb
20260503212146 57 234 2.0 3.0 0.00 0.00 0.00 46 1012.2
20260503211643 57 250 2.0 2.0 0.00 0.00 0.00 50 1012.3
20260503211138 57 246 0.0 1.0 0.00 0.00 0.00 49 1012.4
20260503210635 57 288 6.0 7.0 0.00 0.00 0.00 46 1012.5
20260503210132 56 237 3.0 4.0 0.00 0.00 0.00 48 1012.4
20260503205628 56 254 5.0 7.0 0.00 0.00 0.00 47 1012.5
20260503205124 56 263 5.0 6.0 0.00 0.00 0.00 48 1012.4
20260503204621 56 248 5.0 6.0 0.00 0.00 0.00 47 1012.5
20260503204119 56 267 5.0 6.0 0.00 0.00 0.00 47 1012.5
20260503203615 57 253 3.0 4.0 0.00 0.00 0.00 46 1012.6
20260503203113 57 240 4.0 4.0 0.00 0.00 0.00 46 1012.4
20260503202611 56 256 4.0 4.0 0.00 0.00 0.00 48 1012.4
20260503202109 56 252 3.0 4.0 0.00 0.00 0.00 48 1012.5
20260503201607 57 276 3.0 4.0 0.00 0.00 0.00 46 1012.6
20260503201104 57 281 5.0 6.0 0.00 0.00 0.00 46 1012.7
20260503200600 57 274 7.0 9.0 0.00 0.00 0.00 46 1012.6
20260503200056 57 275 6.0 9.0 0.00 0.00 0.00 47 1012.6
20260503195553 57 308 5.0 7.0 0.00 0.00 0.00 46 1012.7
20260503195050 59 268 6.0 8.0 0.00 0.00 0.00 45 1012.7
20260503194547 59 266 2.0 2.0 0.00 0.00 0.00 46 1012.7
20260503194047 57 228 2.0 3.0 0.00 0.00 0.00 49 1012.9
20260503193544 57 259 4.0 6.0 0.00 0.00 0.00 49 1012.9
20260503193039 57 281 2.0 3.0 0.00 0.00 0.00 48 1012.9
20260503192535 56 228 2.0 2.0 0.00 0.00 0.00 46 1013.0
20260503192031 56 279 1.0 2.0 0.00 0.00 0.00 46 1013.2
20260503191528 57 273 6.0 7.0 0.00 0.00 0.00 46 1013.2
20260503191025 58 161 5.0 7.0 0.00 0.00 0.00 42 1013.1
20260503190522 57 270 2.0 2.0 0.00 0.00 0.00 48 1013.3
20260503190019 56 252 3.0 3.0 0.00 0.00 0.00 49 1013.2
20260503185515 57 274 3.0 6.0 0.00 0.00 0.00 48 1013.4
20260503185015 57 246 2.0 4.0 0.00 0.00 0.00 50 1013.5
20260503184511 57 275 6.0 8.0 0.00 0.00 0.00 49 1013.3
20260503184008 56 298 3.0 3.0 0.00 0.00 0.00 49 1013.4
20260503183504 56 231 2.0 2.0 0.00 0.00 0.00 50 1013.5
20260503183001 56 291 2.0 3.0 0.00 0.00 0.00 51 1013.8
20260503182500 57 266 3.0 3.0 0.00 0.00 0.00 48 1013.8
20260503181957 57 291 2.0 3.0 0.00 0.00 0.00 45 1013.9
20260503181454 55 257 4.0 4.0 0.00 0.00 0.00 50 1013.8
20260503180950 56 263 8.0 9.0 0.00 0.00 0.00 51 1013.7
20260503180449 57 272 2.0 3.0 0.00 0.00 0.00 49 1013.8
20260503175945 57 225 1.0 2.0 0.00 0.00 0.00 50 1013.8
20260503175443 55 238 2.0 2.0 0.00 0.00 0.00 52 1013.8
20260503174939 56 267 4.0 4.0 0.00 0.00 0.00 52 1013.8
20260503174438 56 290 6.0 10.0 0.00 0.00 0.00 51 1013.9
20260503173937 58 182 2.0 3.0 0.00 0.00 0.00 54 1013.7
20260503173434 56 261 2.0 2.0 0.00 0.00 0.00 48 1013.8
20260503172931 56 258 0.0 1.0 0.00 0.00 0.00 49 1013.8
20260503172428 58 211 0.0 0.0 0.00 0.00 0.00 53 1014.0
20260503171924 56 297 4.0 4.0 0.00 0.00 0.00 50 1013.9
20260503171421 56 314 2.0 3.0 0.00 0.00 0.00 53 1014.0
20260503170919 55 264 1.0 2.0 0.00 0.00 0.00 54 1013.9
20260503170415 55 271 3.0 4.0 0.00 0.00 0.00 50 1013.9
20260503150807 51 270 2.0 3.0 0.00 0.00 0.00 51 1015.0
20260503150303 51 322 5.0 7.0 0.00 0.00 0.00 53 1015.2
20260503140228 50 295 4.0 6.0 0.00 0.00 0.00 59 1015.3
20260503131157 46 52 4.0 6.0 0.00 0.00 0.00 65 1015.7
20260503130654 44 271 0.0 0.0 0.00 0.00 0.00 68 1015.8
20260503130152 45 258 1.0 2.0 0.00 0.00 0.00 67 1015.9
20260503120123 42 199 2.0 2.0 0.00 0.00 0.00 74 1015.5
20260503110551 39 255 0.0 0.0 0.00 0.00 0.00 79 1015.1
20260503090437 34 258 0.0 0.0 0.00 0.00 0.00 86 1014.3
20260503081404 36 255 0.0 0.0 0.00 0.00 0.00 80 1014.1
20260503080901 36 282 1.0 2.0 0.00 0.00 0.00 79 1014.0
20260503080358 36 242 0.0 0.0 0.00 0.00 0.00 80 1014.0
20260503072834 36 236 1.0 1.0 0.00 0.00 0.00 80 1013.9
20260503072331 36 252 0.0 0.0 0.00 0.00 0.00 79 1013.8
20260503071827 36 250 0.0 0.0 0.00 0.00 0.00 80 1013.7
20260503071325 37 260 0.0 0.0 0.00 0.00 0.00 78 1013.9
20260503070821 37 222 0.0 0.0 0.00 0.00 0.00 77 1013.8
20260503070319 36 286 0.0 1.0 0.00 0.00 0.00 78 1013.8
20260503060244 38 260 0.0 0.0 0.00 0.00 0.00 77 1013.7
20260503054731 40 250 0.0 0.0 0.00 0.00 0.00 74 1013.9
20260503054228 40 261 1.0 2.0 0.00 0.00 0.00 74 1013.8
20260503053726 40 260 1.0 1.0 0.00 0.00 0.00 75 1013.9
20260503053225 40 260 1.0 1.0 0.00 0.00 0.00 74 1014.0
20260503052720 40 265 1.0 1.0 0.00 0.00 0.00 76 1013.8
20260503052217 40 259 2.0 2.0 0.00 0.00 0.00 76 1013.9
20260503051712 40 261 0.0 0.0 0.00 0.00 0.00 78 1013.7
20260503051210 40 263 0.0 0.0 0.00 0.00 0.00 77 1014.1
20260503050706 40 259 1.0 1.0 0.00 0.00 0.00 77 1014.0
20260503050203 41 252 0.0 0.0 0.00 0.00 0.00 77 1014.2
20260503045700 41 256 0.0 0.0 0.00 0.00 0.00 77 1014.3
20260503045158 41 256 0.0 0.0 0.00 0.00 0.00 77 1014.1
20260503044654 41 255 0.0 0.0 0.00 0.00 0.00 74 1014.2
20260503044152 41 255 0.0 0.0 0.00 0.00 0.00 75 1014.0
20260503043648 41 263 0.0 1.0 0.00 0.00 0.00 75 1014.2
20260503043146 41 253 0.0 1.0 0.00 0.00 0.00 75 1014.0
20260503042642 41 246 0.0 1.0 0.00 0.00 0.00 74 1013.9
20260503042138 41 250 0.0 0.0 0.00 0.00 0.00 74 1014.1
20260503041634 41 237 1.0 1.0 0.00 0.00 0.00 73 1014.3
20260503041132 41 333 2.0 3.0 0.00 0.00 0.00 73 1014.1
20260503040629 41 250 0.0 1.0 0.00 0.00 0.00 73 1014.2
20260503040127 41 245 0.0 0.0 0.00 0.09 0.09 76 1014.1
20260503035623 41 255 1.0 2.0 0.00 0.09 0.09 75 1014.3
20260503035121 41 242 0.0 0.0 0.00 0.09 0.09 77 1014.2
20260503034618 41 249 0.0 0.0 0.00 0.09 0.09 78 1014.5
20260503034116 41 259 2.0 2.0 0.00 0.09 0.09 76 1014.2
20260503033613 41 258 0.0 0.0 0.00 0.09 0.09 77 1014.4
20260503033110 41 249 0.0 0.0 0.00 0.09 0.09 80 1014.3
20260503032608 41 250 0.0 0.0 0.00 0.09 0.09 80 1014.3
20260503032107 41 244 0.0 0.0 0.00 0.09 0.09 81 1014.3
20260503031604 41 261 0.0 0.0 0.00 0.09 0.09 82 1014.2
20260503031101 41 265 1.0 1.0 0.00 0.09 0.09 83 1014.4
20260503030557 42 250 0.0 0.0 0.00 0.09 0.09 82 1014.4
20260503030054 42 256 0.0 0.0 0.00 0.09 0.09 82 1014.3
20260503025551 42 253 0.0 0.0 0.00 0.09 0.09 81 1014.4
20260503025049 42 256 1.0 1.0 0.00 0.09 0.09 79 1014.4
20260503024544 42 261 2.0 3.0 0.00 0.09 0.09 79 1014.4
20260503024042 42 249 0.0 1.0 0.00 0.09 0.09 81 1014.6
20260503023538 42 259 2.0 2.0 0.00 0.09 0.09 82 1014.5
20260503023036 42 252 0.0 0.0 0.00 0.09 0.09 85 1014.5
20260503022532 42 272 0.0 1.0 0.00 0.09 0.09 85 1014.5
20260503022026 42 263 2.0 2.0 0.00 0.09 0.09 87 1014.4
20260503021524 42 249 0.0 1.0 0.00 0.09 0.09 87 1014.5
20260503021020 42 251 1.0 2.0 0.00 0.09 0.09 86 1014.4
20260503020518 42 252 0.0 0.0 0.00 0.09 0.09 87 1014.4
20260503020014 42 251 0.0 0.0 0.00 0.09 0.09 87 1014.4
20260503015511 42 252 0.0 1.0 0.00 0.09 0.09 87 1014.4
20260503015008 42 251 0.0 0.0 0.00 0.09 0.09 87 1014.2
20260503014504 42 257 1.0 1.0 0.00 0.09 0.09 87 1014.3
20260503014002 42 251 0.0 0.0 0.00 0.09 0.09 87 1014.2
20260503013459 42 253 0.0 0.0 0.00 0.09 0.09 87 1014.2
20260503012956 42 249 0.0 0.0 0.00 0.09 0.09 87 1014.4
20260503012454 42 248 0.0 0.0 0.00 0.09 0.09 86 1014.2
20260503011950 42 265 2.0 3.0 0.00 0.09 0.09 85 1014.2
20260503011447 42 253 0.0 1.0 0.00 0.09 0.09 85 1014.1
20260503010944 42 256 1.0 1.0 0.00 0.09 0.09 85 1014.1
20260503010441 42 249 0.0 0.0 0.00 0.09 0.09 85 1014.1
20260503005938 42 240 0.0 0.0 0.00 0.09 0.09 87 1014.1
20260503005435 42 256 0.0 0.0 0.00 0.09 0.09 87 1014.1
20260503004932 42 249 0.0 0.0 0.00 0.09 0.09 88 1014.1
20260503004429 42 250 0.0 0.0 0.00 0.09 0.09 88 1014.0
20260503003926 42 253 0.0 0.0 0.00 0.09 0.09 88 1013.8
20260503003423 41 251 0.0 0.0 0.00 0.09 0.09 89 1013.9
20260503002920 42 255 0.0 0.0 0.00 0.09 0.09 90 1013.8
20260503002417 42 253 0.0 0.0 0.00 0.09 0.09 90 1013.7
20260503001914 42 255 0.0 0.0 0.00 0.09 0.09 90 1013.9
20260503001410 42 254 0.0 0.0 0.00 0.09 0.09 89 1013.8
20260503000908 42 253 0.0 0.0 0.00 0.09 0.09 88 1013.8
20260503000405 43 253 0.0 0.0 0.00 0.09 0.09 86 1013.8
20260502235902 43 253 0.0 0.0 0.00 0.09 0.09 85 1013.7
20260502235359 43 260 0.0 0.0 0.00 0.09 0.09 84 1013.8
20260502234856 43 254 0.0 0.0 0.00 0.09 0.09 85 1013.4
20260502234352 43 249 0.0 0.0 0.00 0.09 0.09 85 1013.5
20260502233849 44 249 0.0 0.0 0.00 0.09 0.09 83 1013.7
20260502233345 44 267 2.0 3.0 0.00 0.09 0.09 80 1013.7
20260502232843 44 257 1.0 2.0 0.00 0.09 0.09 80 1013.5
20260502232339 44 279 1.0 2.0 0.00 0.09 0.09 79 1013.5
20260502231835 44 271 1.0 1.0 0.00 0.09 0.09 78 1013.4
20260502231333 44 260 2.0 2.0 0.00 0.09 0.09 78 1013.2
20260502230831 45 253 0.0 0.0 0.00 0.09 0.09 80 1013.4
20260502230329 45 236 1.0 2.0 0.00 0.09 0.09 78 1013.4
20260502225826 45 248 0.0 0.0 0.00 0.09 0.09 80 1013.5
20260502225322 45 272 2.0 3.0 0.00 0.09 0.09 79 1013.3
20260502224819 45 230 1.0 1.0 0.00 0.09 0.09 77 1013.4
20260502224315 44 255 1.0 1.0 0.00 0.09 0.09 78 1013.3
20260502223813 45 260 1.0 2.0 0.00 0.09 0.09 81 1013.2
20260502223311 45 286 1.0 2.0 0.00 0.09 0.09 80 1013.2
20260502222808 45 252 0.0 0.0 0.00 0.09 0.09 81 1013.2
20260502222306 45 263 0.0 0.0 0.00 0.09 0.09 79 1013.3
20260502221801 45 240 1.0 1.0 0.00 0.09 0.09 79 1013.2
20260502221257 45 279 2.0 2.0 0.00 0.09 0.09 78 1013.2
20260502220755 46 270 1.0 1.0 0.00 0.09 0.09 77 1013.2
20260502220250 46 260 0.0 1.0 0.00 0.09 0.09 78 1013.3
20260502215747 46 262 0.0 0.0 0.00 0.09 0.09 77 1013.4
20260502215244 46 272 2.0 2.0 0.00 0.09 0.09 79 1013.5
20260502214742 46 254 0.0 0.0 0.00 0.09 0.09 81 1013.2
20260502214238 45 257 0.0 1.0 0.00 0.09 0.09 82 1013.5
20260502213736 45 241 0.0 0.0 0.00 0.09 0.09 81 1013.4
20260502213233 45 239 0.0 0.0 0.00 0.09 0.09 83 1013.5
20260502212732 45 261 0.0 0.0 0.00 0.09 0.09 82 1013.3